F3965 Weather Reports


time (UTC)temp
C
wind
direction
speed
KPH
gust
KPH
rain 1hr
cm
rain 24hr
cm
rain mn
cm
humidity
%
barometer
mb
20260506154532 12 0 0.0 6.4 0.05 0.36 0.15 57 1014.7
20260506153030 12 275 6.4 12.9 0.08 0.36 0.15 57 1014.8
20260506151531 12 29 0.0 11.3 0.10 0.33 0.13 57 1014.8
20260506150030 12 5 3.2 16.1 0.08 0.30 0.10 58 1014.9
20260506144534 13 340 4.8 8.0 0.08 0.46 0.08 58 1015.0
20260506143033 13 29 6.4 14.5 0.00 0.38 0.03 56 1015.0
20260506141533 14 77 6.4 27.4 0.00 0.36 0.00 53 1015.1
20260506140032 15 49 14.5 35.4 0.00 0.36 0.00 51 1014.9
20260506134532 15 42 17.7 33.8 0.00 0.64 0.00 49 1014.9
20260506133032 15 28 16.1 33.8 0.00 0.64 0.00 50 1014.9
20260506131544 15 59 12.9 35.4 0.00 0.64 0.00 50 1014.7
20260506130037 15 30 17.7 38.6 0.00 0.64 0.00 51 1014.8
20260506124529 15 344 16.1 27.4 0.00 0.64 0.00 49 1014.7
20260506123031 15 30 14.5 29.0 0.00 0.64 0.00 50 1014.5
20260506121530 15 25 14.5 25.7 0.00 0.64 0.00 49 1014.5
20260506120033 15 28 8.0 27.4 0.00 0.64 0.00 46 1014.4
20260506114534 15 44 14.5 27.4 0.00 0.64 0.00 46 1014.4
20260506113030 15 22 14.5 27.4 0.00 0.64 0.00 49 1014.5
20260506111531 15 26 12.9 27.4 0.00 0.64 0.00 49 1014.6
20260506110033 15 5 16.1 24.1 0.00 0.64 0.00 49 1014.5
20260506104533 14 59 9.7 22.5 0.00 0.64 0.00 51 1014.6
20260506103045 15 31 8.0 17.7 0.00 0.64 0.00 46 1014.4
20260506101543 15 40 6.4 14.5 0.00 0.64 0.00 46 1014.3
20260506100052 15 24 12.9 20.9 0.00 0.64 0.00 47 1014.4
20260506094533 14 34 4.8 16.1 0.00 0.64 0.00 48 1014.5
20260506093039 14 36 9.7 17.7 0.00 0.64 0.00 48 1014.4
20260506091537 14 360 6.4 17.7 0.00 0.64 0.00 48 1014.2
20260506090034 14 28 4.8 22.5 0.00 0.64 0.00 47 1014.2
20260506084540 14 5 9.7 20.9 0.00 0.64 0.00 46 1014.1
20260506083033 14 24 14.5 29.0 0.00 0.64 0.00 47 1014.2
20260506081541 13 17 12.9 24.1 0.00 0.64 0.00 47 1014.1
20260506073043 11 271 8.0 16.1 0.00 0.64 0.00 53 1014.1
20260506071536 10 282 4.8 16.1 0.00 0.64 0.00 55 1014.0
20260506061535 10 215 0.0 3.2 0.00 0.64 0.00 64 1013.8
20260506044613 9 252 1.6 4.8 0.00 0.64 0.00 64 1013.4
20260506043032 9 0 1.6 4.8 0.00 0.64 0.00 64 1013.4
20260506041531 9 0 0.0 3.2 0.00 0.64 0.00 64 1013.4
20260506040031 9 0 0.0 1.6 0.00 0.64 0.00 64 1013.6
20260506034600 9 248 0.0 4.8 0.00 0.66 0.00 64 1013.6
20260506033035 9 250 0.0 3.2 0.00 0.66 0.00 64 1013.6
20260506031531 9 0 0.0 1.6 0.00 0.66 0.00 64 1013.6
20260506030032 9 0 0.0 3.2 0.00 0.66 0.00 64 1013.7
20260506024532 9 0 0.0 3.2 0.00 0.66 0.00 64 1013.8
20260506023035 9 250 0.0 4.8 0.00 0.66 0.00 64 1013.7
20260506021534 9 245 3.2 8.0 0.00 0.66 0.00 64 1013.7
20260506020030 9 235 0.0 4.8 0.00 0.64 0.00 64 1013.9
20260506014533 9 235 3.2 6.4 0.00 0.64 0.00 64 1013.9
20260506013035 10 0 0.0 3.2 0.00 0.64 0.00 64 1013.8
20260506011533 9 0 0.0 3.2 0.00 0.64 0.00 64 1014.0
20260506010035 9 0 0.0 3.2 0.00 0.64 0.00 64 1014.1
20260506004556 9 223 0.0 4.8 0.00 0.64 0.00 64 1014.3
20260506003041 9 0 1.6 4.8 0.00 0.64 0.00 63 1014.3
20260506001530 9 223 0.0 3.2 0.00 0.64 0.00 63 1014.5
20260506000031 9 223 1.6 4.8 0.00 0.64 0.00 63 1014.4
20260505234549 9 223 1.6 4.8 0.00 0.76 0.00 62 1014.5
20260505233036 9 0 1.6 6.4 0.00 0.76 0.00 62 1014.6
20260505231535 9 223 1.6 6.4 0.00 0.76 0.00 61 1014.6
20260505230040 9 0 1.6 4.8 0.00 0.76 0.00 60 1014.6
20260505224536 9 227 0.0 4.8 0.00 0.76 0.00 59 1014.6
20260505223031 9 227 3.2 6.4 0.00 0.76 0.00 59 1014.6
20260505221535 10 0 0.0 4.8 0.00 0.76 0.00 59 1014.8
20260505220043 10 263 3.2 6.4 0.00 0.76 0.00 58 1014.8
20260505214537 10 262 1.6 4.8 0.00 0.76 0.76 58 1014.8
20260505213031 10 0 0.0 4.8 0.00 0.76 0.76 58 1015.1
20260505211530 10 262 0.0 4.8 0.00 0.76 0.76 58 1015.1
20260505210030 10 265 1.6 11.3 0.00 0.76 0.76 58 1015.0
20260505204535 11 0 0.0 0.0 0.00 0.76 0.76 58 1014.9
20260505203030 11 0 0.0 0.0 0.00 0.76 0.76 58 1014.8
20260505201536 11 0 0.0 3.2 0.00 0.74 0.74 58 1014.9
20260505200030 11 0 0.0 3.2 0.00 0.74 0.74 58 1014.6
20260505194537 11 0 0.0 1.6 0.08 0.74 0.74 58 1014.6
20260505193038 11 37 0.0 4.8 0.10 0.74 0.74 58 1014.5
20260505191547 11 0 0.0 4.8 0.10 0.74 0.74 57 1014.3
20260505190031 12 35 1.6 24.1 0.08 0.74 0.74 56 1014.2
20260505184533 12 315 9.7 16.1 0.00 0.64 0.64 55 1014.3
20260505183035 12 273 1.6 6.4 0.00 0.64 0.64 56 1014.2
20260505181534 12 275 1.6 9.7 0.00 0.64 0.64 57 1014.1
20260505180045 12 287 3.2 9.7 0.00 0.64 0.64 57 1014.1
20260505174539 12 302 3.2 9.7 0.00 0.64 0.64 57 1014.1
20260505173031 13 252 1.6 11.3 0.00 0.64 0.64 57 1014.0
20260505171534 13 269 3.2 12.9 0.00 0.61 0.61 56 1014.1
20260505170036 13 279 3.2 11.3 0.00 0.61 0.61 55 1014.2
20260505164530 13 288 8.0 19.3 0.00 0.61 0.61 52 1014.2
20260505163038 13 13 8.0 22.5 0.03 0.61 0.61 52 1014.1
20260505161530 13 31 11.3 24.1 0.03 0.61 0.61 52 1013.9